Flag for U.S.A. Weather past 2 weeks in McAllen, Texas, U.S.A.

Now
84 °F

Overcast.


Feels Like: 94 °F
Forecast: 78 / 95 °F
Wind: 14 mph from South

Location: Miller International Airport

Current Time: Jul 8, 2015 at 2:09:12 AM

Latest Report: Jul 8, 2015 at 12:53 AM


Visibility: 7 mi

Pressure: 29.99 "Hg

Humidity: 80%

Dew point: 77 °F

Location of McAllenLocation

Historic Weather in McAllen — Graph

°F

McAllen temperature yesterday

Maximum temperature yesterday: 96 °F (at 2:53 PM)
Minimum temperature yesterday: 81 °F (at 2:53 AM)
Average temperature yesterday: 87 °F

Past Weeks' High & Low Weather Summary

 TemperatureHumidityPressure
High97 °F (Jun 27, 1:53 PM)90% (Jun 25, 6:53 AM)30.13 "Hg (Jun 25, 6:53 AM)
Low74 °F (Jul 1, 8:53 AM)38% (Jul 4, 5:53 PM)29.88 "Hg (Jul 7, 6:53 PM)
Average85 °F70%29.98 "Hg
* Reported Jun 23 12:53 AM — Jul 8 12:53 AM, McAllen, Weather by CustomWeather, © 2015

Note: Actual official high and low records may vary slightly from our data, if they occured in-between our weather recording intervals... More about our weather records

Advertising

McAllen weather history for previous 24 hours

 ConditionsComfort  
Time TempWeatherWind HumidityBarometerVisibility
12:53 AM
Wed, Jul 8
84 °FOvercast.14 mph80%29.99 "Hg7 mi
11:53 PM
Tue, Jul 7
83 °FPassing clouds.15 mph82%29.98 "Hg6 mi
10:53 PM84 °FOvercast.12 mph80%29.96 "Hg7 mi
9:53 PM85 °FClear.13 mph75%29.95 "Hg8 mi
8:53 PM87 °FSunny.15 mph65%29.92 "Hg10 mi
7:53 PM89 °FSunny.17 mph59%29.90 "Hg9 mi
6:53 PM92 °FSunny.22 mph54%29.88 "Hg10 mi
5:53 PM93 °FPartly sunny.22 mph52%29.88 "Hg10 mi
4:53 PM94 °FPassing clouds.24 mph51%29.88 "Hg10 mi
3:53 PM95 °FScattered clouds.25 mph49%29.90 "Hg10 mi
2:53 PM96 °FScattered clouds.21 mph49%29.91 "Hg10 mi
1:53 PM94 °FBroken clouds.22 mph52%29.93 "Hg10 mi
12:53 PM93 °FPartly sunny.20 mph54%29.95 "Hg10 mi
11:53 AM93 °FScattered clouds.23 mph54%29.96 "Hg10 mi
10:53 AM90 °FPassing clouds.23 mph61%29.96 "Hg10 mi
10:04 AM87 °FScattered clouds.24 mph67%29.97 "Hg9 mi
9:53 AM87 °FBroken clouds.23 mph67%29.97 "Hg9 mi
8:53 AM84 °FScattered clouds.21 mph77%29.97 "Hg7 mi
7:53 AM82 °FSunny.15 mph82%29.95 "Hg5 mi
6:53 AM81 °FPassing clouds.13 mph85%29.94 "Hg6 mi
5:53 AM81 °FClear.14 mph82%29.94 "Hg7 mi
4:53 AM81 °FPassing clouds.14 mph85%29.94 "Hg8 mi
3:53 AM81 °FClear.13 mph82%29.95 "Hg8 mi
2:53 AM81 °FClear.12 mph82%29.97 "Hg9 mi
Weather by CustomWeather, © 2015

See weather overviewHow to use our weather pages